User: anonymous   Login
Location: Dover
(39.1580°N, 75.5250°W)
Time: 06:02:23
(UTC-05:00)
Language:

Cosmos 1437 Rocket - Orbit

View from above orbital plane
View from above orbital plane
View from above satellite
View from above satellite

Ground track
Ground track

The orbit data is extracted from the following two-line orbital elements,

1 13771U 83003B   14352.50452163  .00005224  00000-0  34103-3 0  2028
2 13771 081.1572 332.8628 0030829 141.5664 218.7764 15.07287701736308
Epoch (UTC): 18 December 2014 12:06:30
Eccentricity: 0.0030829
inclination: 81.1572°
perigee height: 523 km
apogee height: 566 km
right ascension of ascending node: 332.8628°
argument of perigee: 141.5664°
revolutions per day: 15.07287701
mean anomaly at epoch: 218.7764°
orbit number at epoch: 73630

The dashed part of the orbit path shows where the satellite is in the earth's shadow,  

DLR